861  
NZUS99 KDVN 232310  
HRRCWA  
HOURLY WEATHER ROUNDUP  
NATIONAL WEATHER SERVICE QUAD CITIES IA IL  
600 PM CDT SAT MAR 23 2019  
 
NOTE: "FAIR" INDICATES FEW OR NO CLOUDS BELOW 12,000 FEET WITH  
NO SIGNIFICANT WEATHER AND/OR OBSTRUCTIONS TO VISIBILITY.  
 
* - THESE STATIONS ARE NOT NWS STATIONS AND ARE NOT SUBJECT TO NWS  
QUALITY CONTROL. SOME STATIONS DO NOT REPORT WEATHER SUCH AS FOG  
AND SOME ONLY REPORT TMP AND DP IN WHOLE DEGREES CELSIUS, WHICH ARE  
THEN CONVERTED TO FAHRENHEIT.  
   
..NORTHEAST IOWA...............................................
 
 
 
CITY SKY/WX TMP DP RH WIND PRES REMARKS  
DECORAH * FAIR 50 34 53 S6 30.15S WCI 48  
DUBUQUE FAIR 51 32 48 S9 30.18F  
INDEPENDENCE * FAIR 52 35 51 SE7 30.15F  
OELWEIN * FAIR 50 37 62 SE7 30.16S WCI 47  
WATERLOO FAIR 52 34 50 E8 30.14F  
   
..SOUTHWEST AND SOUTH CENTRAL WISCONSIN........................
 
 
 
CITY SKY/WX TMP DP RH WIND PRES REMARKS  
BOSCOBEL FAIR 55 30 38 S7 30.18S  
JANESVILLE * PTSUNNY 52 27 37 SW13 30.20F  
LONE ROCK FAIR 52 30 43 SW8 30.18S  
MINERAL POINT* FAIR 50 32 50 SW8 30.18S WCI 47  
MONROE * FAIR 50 31 47 MISG 30.19F  
PRAIRIE DU CHI FAIR 53 28 38 SE3 30.17S  
   
..EAST CENTRAL IOWA............................................
 
 
 
CITY SKY/WX TMP DP RH WIND PRES REMARKS  
CEDAR RAPIDS PTSUNNY 52 33 48 SE9 30.14F  
CLINTON * FAIR 53 32 44 S8 30.19F  
DAVENPORT FAIR 53 31 42 SE10 30.19F  
IOWA CITY CLOUDY 53 31 42 SE12 30.17F  
MARSHALLTOWN CLOUDY 50 38 63 SE9 30.11F WCI 46  
MONTICELLO * NOT AVBL  
MUSCATINE * CLOUDY 55 30 38 S9G15 30.18S  
NEWTON * CLOUDY 52 36 54 SE8G15 30.10F  
VINTON * FAIR 54 33 44 SE9 30.14F  
   
..NORTHWEST ILLINOIS...........................................
 
 
 
CITY SKY/WX TMP DP RH WIND PRES REMARKS  
FREEPORT * FAIR 49 31 50 S7 30.22F WCI 46  
MOLINE FAIR 55 30 38 SE10 30.18S  
PERU * FAIR 51 29 42 S13 30.23F  
ROCHELLE * FAIR 50 34 54 S10 30.22F WCI 46  
ROCKFORD PTSUNNY 51 30 44 S10 30.23F  
SAVANNA * FAIR 54 32 43 SE7 30.19F  
STERLING/R.F.* FAIR 53 32 44 SE7 30.21F  
   
..SOUTHEAST IOWA AND NORTHEAST MISSOURI........................
 
 
 
CITY SKY/WX TMP DP RH WIND PRES REMARKS  
BURLINGTON CLOUDY 53 32 44 SE9 30.16F  
FAIRFIELD * CLOUDY 54 32 43 SE10G16 30.14S  
FORT MADISON * CLOUDY 54 34 47 SE8 30.16F  
KEOKUK * CLOUDY 54 34 47 SE13G20 30.15F  
KIRKSVILLE CLOUDY 55 36 48 SE12 30.11F  
KNOXVILLE * PTSUNNY 54 32 43 SE14 30.10R HAZE  
MT PLEASANT * CLOUDY 54 34 47 SE12 30.15F  
OTTUMWA PTSUNNY 53 33 46 SE13 30.12F  
WASHINGTON * CLOUDY 52 34 50 SE7 30.16S  
   
..WESTERN ILLINOIS.............................................
 
 
 
CITY SKY/WX TMP DP RH WIND PRES REMARKS  
GALESBURG * FAIR 53 31 42 SE6 30.20S  
MACOMB * CLOUDY 52 34 51 SE12 30.20F  
PEORIA FAIR 53 30 41 S14 30.21F  
QUINCY CLOUDY 53 33 46 SE12 30.15F  
 
END...  
 
 
CLICK HERE TO GO TO PREVIOUS BULLETINS.

The Nexlab IL Page
The Nexlab IA Page
The Nexlab MO Page Main Text Page